Location: Bougoudala
(13.2282°N, 4.9477°W)
Time: 20:58:47
(UTC+00:00)

CZ-2D R/B - Pass Details

Date: 29 January 2020
Orbit: 522 x 538 km, 97.4° (Epoch: 27 February)

Event Time Altitude Azimuth Distance (km) Brightness Sun altitude
Rises 19:20:57 0° 169° (S) 2,646 6.9 -15.3°
Reaches altitude 10° 19:23:03 10° 169° (S) 1,760 5.9 -15.8°
Maximum altitude 19:26:51 89° 255° (WSW) 531 3.2 -16.6°
Drops below altitude 10° 19:30:40 10° 349° (NNW) 1,770 5.9 -17.5°
Sets 19:32:47 0° 349° (N) 2,663 6.8 -18.0°
